Find Starlink 30150

NORAD ID: 57621 Int'l Des: 2023-119 Owner: SPXS Country: US Constellation: starlink operational
LEOCIRCULAR

リアルタイム位置

3D地球を読み込み中...

Starlink 30150について

説明を読み込み中...

次回通過

Passes for default location (London). Set your location on the main map for personalized predictions.

高度履歴

Loading altitude history...

軌道要素

1 57621U 23119V 26125.48046103 .00000895 00000-0 42048-4 0 9993
2 57621 43.0023 120.6965 0000948 264.3952 95.6791 15.27581149151777
Epoch: May 5, 2026 • Age: 9 hours

現在のステータス

高度 486.8 km
速度 7.62 km/s
衛星直下点 -18.80°S, 78.88°W
打ち上げ日 Aug 11, 2023
運用期間 2.7 years
タイプ internet

技術仕様

分類 Payload
質量 730.00 kg
乾燥質量 700.00 kg
総質量 730.00 kg
長さ 0.30 m
直径 4.10 m
スパン 29.00 m
形状 Box + pan
製造者 SPXS
バスタイプ Starlink V2M
フェーズステータス In Orbit
所有者/国 SPXS/US

Most Searched